Miscellaneous Local Product
Issued by NWS Hastings, NE

Home | Current Version | Previous Version | Text Only | Print | Product List | Glossary On
Versions: 1 2 3 4 5 6 7 8 9 10 11 12 13 14 15 16 17 18 19 20 21 22 23 24 25 26 27 28 29 30 31 32 33 34 35 36 37 38 39 40 41 42 43 44 45 46 47 48 49 50
000
AXUS43 KGID 290702
MISGRI

GID CWA HOURLY WEATHER ROUNDUP
NATIONAL WEATHER SERVICE HASTINGS NE
200 AM CDT WED JUL 29 2015

NOTE: "FAIR" INDICATES FEW OR NO CLOUDS BELOW 12,000 FEET WITH NO
SIGNIFICANT WEATHER AND/OR OBSTRUCTIONS TO VISIBILITY.

...SOUTH CENTRAL NEBRASKA...

CITY           SKY/WX    TMP DP  RH WIND       PRES   REMARKS
GRAND ISLAND   CLEAR     61  55  81 NE3       30.12R
HASTINGS       CLEAR     63  56  78 NE7       30.12R
KEARNEY        CLEAR     61  54  77 NE5       30.13R
ORD            CLEAR     57  55  93 CALM      30.12R
YORK           CLEAR     63  59  88 NE6       30.10S
AURORA         CLEAR     60  59  95 N5        30.11S
LEXINGTON      CLEAR     59  52  79 CALM      30.13R
HOLDREGE       CLEAR     58  55  89 NE6       30.13R
HEBRON         PTCLDY    68  61  77 NE5       30.09R

...NEBRASKA PANHANDLE...

CITY           SKY/WX    TMP DP  RH WIND       PRES   REMARKS
CHADRON        CLEAR     48  42  80 SW7       30.23R
ALLIANCE       CLEAR     47  42  83 CALM      30.24R
SCOTTSBLUFF    CLEAR     54  44  69 N5        30.24S
SIDNEY         CLEAR     52  41  66 N7        30.25R

...WESTERN AND NORTH CENTRAL NEBRASKA...

CITY           SKY/WX    TMP DP  RH WIND       PRES   REMARKS
VALENTINE      CLEAR     52  46  80 W6        30.16S
AINSWORTH      CLEAR     59  49  69 NW3       30.17R
ONEILL         CLEAR     62  54  73 N5        30.13S
BROKEN BOW     CLEAR     57  50  77 N5        30.14R
IMPERIAL       CLEAR     59  50  72 CALM      30.19R
NORTH PLATTE   CLEAR     55  51  86 CALM      30.17R
MCCOOK         CLEAR     62  52  69 CALM      30.15R

...EASTERN NEBRASKA...

CITY           SKY/WX    TMP DP  RH WIND       PRES   REMARKS
NORFOLK        CLEAR     60  56  86 W5        30.10R
SO SIOUX CITY  CLEAR     63  59  87 W5        30.08R
TEKAMAH        PTCLDY    63  61  93 W6        30.07R
COLUMBUS       CLEAR     55  50  82 CALM      30.10S
ALBION         CLEAR     57  53  87 CALM      30.11S
OMAHA EPPLEY   CLOUDY    66  63  90 NW7       30.05F
OFFUTT AFB     CLOUDY    71  61  72 N5        30.04F
MILLARD        CLOUDY    72  62  71 CALM      30.06S
LINCOLN        PTCLDY    64  61  90 N7        30.08S
NEBRASKA CITY  CLOUDY    71  63  77 N7        30.05R
BEATRICE       CLOUDY    68  65  93 S6        30.08R
FALLS CITY     LGT RAIN  72  72 100 SW5       30.03R

...NORTHERN KANSAS...

CITY           SKY/WX    TMP DP  RH WIND       PRES   REMARKS
GOODLAND       CLEAR     60  51  72 CALM      30.19R
HILL CITY      PTCLDY    63  58  83 NE8       30.12R
NORTON         SUNNY     61  54  77 E3        30.12R
PHILLIPSBURG   CLEAR     70  61  73 N6        30.11R
SMITH CENTER   CLEAR     64  57  77 NE10      30.11R
HAYS           MOCLDY    72  55  56 NE8       30.10R
RUSSELL        MOCLDY    73  60  63 NE12      30.07S
CONCORDIA      MOCLDY    70  62  76 E9        30.08R
SALINA         HVY RAIN  74  62  66 NE17G29   30.05R
TOPEKA         MOCLDY    76  71  85 N13       30.00R



USA.gov is the U.S. government's official web portal to all federal, state and local government web resources and services.